Location: Córrego Montividiu
(13.2496°S, 48.8603°W)
Time: 12:03:17
(UTC+00:00)

Cosmos 2251 Rocket - Pass Details

Date: 11 March 2026
Orbit: 761 x 787 km, 74.0° (Epoch: 22 April)

Event Time Altitude Azimuth Distance (km) Brightness Sun altitude
Rises 21:53:24 0° 177° (S) 3,272 6.8 -6.0°
Reaches altitude 10° 21:56:04 10° 166° (SSE) 2,334 5.9 -6.7°
Maximum altitude 22:00:42 30° 105° (ESE) 1,351 4.3 -7.8°
Drops below altitude 10° 22:05:16 10° 45° (NE) 2,302 5.5 -8.9°
Sets 22:07:52 0° 34° (NE) 3,218 6.3 -9.5°
